Location: Geelbroek
(52.9503°N, 6.5712°E)
Time: 08:26:38
(UTC+00:00)

BREEZE-M DEB (TANK) - Pass Details

Date: 15 May 2026
Orbit: 262 x 12018 km, 49.5° (Epoch: 6 June)

Event Time Altitude Azimuth Distance (km) Brightness Sun altitude
Rises 21:15:21 0° 259° (W) 2,791 6.2 -12.3°
Reaches altitude 10° 21:18:09 10° 251° (WSW) 1,368 4.5 -12.6°
Maximum altitude 21:20:30 35° 181° (S) 476 1.6 -12.7°
Enters shadow 21:20:43 33° 164° (SSE) 483 1.5 -12.8°
